IBE4586 MPTO-SKBG

Flight info

Callsign IBE4586
Flight time 1h 5m
Altitude 39000
Route REMAL1A REMAL DCT KUBEK UP790 EJA EJA2C
Aircraft A339/H-SADE1E2E3GHIJ3J5M1P2RWXY/LB2D1

Departure

Time 2026-05-07 17:00
Airport Tocumen International Airport (MPTO)

Arrival

Time 2026-05-07 18:06
Airport Palonegro Airport (SKBG)
Time Latitude Longitude Altitude Speed Heading
2026-05-07 16:09 9.06526 -79.38763 134 ft 0 kts 50°
2026-05-07 16:37 9.06514 -79.38779 35 ft 2 kts 35°
2026-05-07 16:37 9.06489 -79.38796 32 ft 2 kts 26°
2026-05-07 16:37 9.06464 -79.38806 36 ft 3 kts
2026-05-07 16:38 9.06434 -79.38810 36 ft 3 kts 354°
2026-05-07 16:38 9.06393 -79.38803 35 ft 7 kts 344°
2026-05-07 16:38 9.06360 -79.38793 34 ft 3 kts 348°
2026-05-07 16:38 9.06343 -79.38790 35 ft 0 kts 358°
2026-05-07 16:41 9.06346 -79.38789 35 ft 2 kts
2026-05-07 16:41 9.06370 -79.38775 33 ft 6 kts 32°
2026-05-07 16:42 9.06383 -79.38737 36 ft 6 kts 86°
2026-05-07 16:42 9.06374 -79.38708 36 ft 0 kts 110°
2026-05-07 16:42 9.06372 -79.38704 36 ft 2 kts 111°
2026-05-07 16:43 9.06367 -79.38693 34 ft 0 kts 115°
2026-05-07 16:45 9.06354 -79.38667 36 ft 12 kts 117°
2026-05-07 16:45 9.06272 -79.38624 36 ft 15 kts 174°
2026-05-07 16:45 9.06168 -79.38642 36 ft 16 kts 201°
2026-05-07 16:45 9.06069 -79.38696 36 ft 17 kts 209°
2026-05-07 16:46 9.05964 -79.38755 36 ft 18 kts 209°
2026-05-07 16:46 9.05854 -79.38818 36 ft 19 kts 210°
2026-05-07 16:46 9.05709 -79.38901 36 ft 36 kts 210°
2026-05-07 16:46 9.05517 -79.39014 36 ft 26 kts 210°
2026-05-07 16:47 9.05359 -79.39105 36 ft 26 kts 209°
2026-05-07 16:47 9.05200 -79.39196 36 ft 26 kts 209°
2026-05-07 16:47 9.05064 -79.39274 36 ft 16 kts 209°
2026-05-07 16:47 9.04980 -79.39322 36 ft 13 kts 209°
2026-05-07 16:48 9.04914 -79.39360 36 ft 1 kts 209°
2026-05-07 16:54 9.04908 -79.39363 34 ft 3 kts 209°
2026-05-07 16:54 9.04881 -79.39374 36 ft 5 kts 198°
2026-05-07 16:55 9.04844 -79.39365 36 ft 6 kts 155°
2026-05-07 16:55 9.04814 -79.39331 36 ft 7 kts 127°
2026-05-07 16:55 9.04813 -79.39330 36 ft 0 kts 127°
2026-05-07 16:58 9.04811 -79.39327 36 ft 3 kts 126°
2026-05-07 16:58 9.04793 -79.39283 37 ft 8 kts 99°
2026-05-07 16:58 9.04821 -79.39233 37 ft 9 kts 43°
2026-05-07 16:58 9.04845 -79.39215 37 ft 0 kts 34°
2026-05-07 16:59 9.04885 -79.39190 37 ft 30 kts 31°
2026-05-07 17:00 9.05341 -79.38932 37 ft 117 kts 29°
2026-05-07 17:00 9.06252 -79.38415 109 ft 176 kts 28°
2026-05-07 17:00 9.07401 -79.37761 641 ft 201 kts 29°
2026-05-07 17:00 9.08691 -79.37024 1076 ft 228 kts 29°
2026-05-07 17:01 9.10042 -79.36150 1803 ft 225 kts 42°
2026-05-07 17:01 9.10947 -79.34840 2468 ft 239 kts 68°
2026-05-07 17:01 9.11167 -79.33147 3037 ft 249 kts 96°
2026-05-07 17:01 9.10572 -79.31488 3707 ft 255 kts 120°
2026-05-07 17:02 9.09585 -79.29988 4427 ft 257 kts 122°
2026-05-07 17:02 9.08674 -79.28430 5105 ft 258 kts 115°
2026-05-07 17:02 9.07977 -79.26752 5755 ft 260 kts 108°
2026-05-07 17:02 9.07455 -79.24991 6393 ft 263 kts 103°
2026-05-07 17:03 9.07023 -79.23187 6533 ft 263 kts 101°
2026-05-07 17:03 9.06635 -79.21380 6632 ft 263 kts 101°
2026-05-07 17:03 9.06257 -79.19571 6727 ft 263 kts 101°
2026-05-07 17:03 9.05877 -79.17759 6829 ft 263 kts 100°
2026-05-07 17:04 9.05654 -79.15948 6910 ft 254 kts 90°
2026-05-07 17:04 9.05665 -79.14168 6961 ft 253 kts 88°
2026-05-07 17:04 9.05700 -79.12411 7539 ft 247 kts 88°
2026-05-07 17:04 9.05716 -79.10690 8273 ft 244 kts 89°
2026-05-07 17:05 9.05710 -79.08972 8904 ft 245 kts 90°
2026-05-07 17:05 9.05682 -79.07238 9524 ft 247 kts 91°
2026-05-07 17:05 9.05642 -79.05493 10121 ft 249 kts 91°
2026-05-07 17:05 9.05596 -79.03744 10715 ft 249 kts 91°
2026-05-07 17:06 9.05546 -79.01980 11179 ft 256 kts 91°
2026-05-07 17:06 9.05495 -79.00109 11339 ft 276 kts 91°
2026-05-07 17:06 9.05444 -78.98122 11696 ft 286 kts 91°
2026-05-07 17:06 9.05394 -78.96106 12305 ft 287 kts 91°
2026-05-07 17:07 9.05345 -78.94085 12914 ft 288 kts 91°
2026-05-07 17:07 9.05297 -78.92055 13507 ft 289 kts 91°
2026-05-07 17:07 9.05250 -78.90012 14057 ft 291 kts 91°
2026-05-07 17:07 9.05201 -78.87960 14575 ft 293 kts 91°
2026-05-07 17:08 9.05151 -78.85884 15081 ft 296 kts 91°
2026-05-07 17:08 9.05041 -78.83794 15551 ft 300 kts 96°
2026-05-07 17:08 9.04503 -78.81744 16044 ft 305 kts 111°
2026-05-07 17:08 9.03453 -78.79861 16542 ft 310 kts 122°
2026-05-07 17:09 9.02176 -78.78036 16706 ft 326 kts 123°
2026-05-07 17:09 9.00841 -78.76122 16832 ft 340 kts 122°
2026-05-07 17:09 8.99493 -78.74105 16957 ft 353 kts 121°
2026-05-07 17:09 8.98131 -78.71993 17102 ft 363 kts 120°
2026-05-07 17:10 8.96768 -78.69838 17478 ft 365 kts 120°
2026-05-07 17:10 8.95396 -78.67654 17833 ft 369 kts 120°
2026-05-07 17:10 8.94021 -78.65460 18258 ft 369 kts 120°
2026-05-07 17:10 8.92641 -78.63259 18520 ft 374 kts 119°
2026-05-07 17:11 8.91245 -78.61034 18855 ft 376 kts 119°
2026-05-07 17:11 8.89835 -78.58791 19213 ft 379 kts 119°
2026-05-07 17:11 8.88418 -78.56541 19606 ft 379 kts 120°
2026-05-07 17:11 8.86997 -78.54288 19858 ft 383 kts 119°
2026-05-07 17:12 8.85556 -78.52004 20173 ft 387 kts 120°
2026-05-07 17:12 8.84103 -78.49702 20540 ft 389 kts 119°
2026-05-07 17:12 8.82640 -78.47387 20900 ft 392 kts 120°
2026-05-07 17:12 8.81170 -78.45062 21247 ft 394 kts 120°
2026-05-07 17:13 8.79686 -78.42716 21580 ft 398 kts 119°
2026-05-07 17:13 8.78191 -78.40355 21940 ft 400 kts 120°
2026-05-07 17:13 8.76685 -78.37977 22298 ft 403 kts 120°
2026-05-07 17:13 8.75169 -78.35586 22626 ft 406 kts 120°
2026-05-07 17:14 8.73641 -78.33178 22974 ft 408 kts 120°
2026-05-07 17:14 8.72122 -78.30786 23308 ft 411 kts 120°
2026-05-07 17:14 8.70573 -78.28345 23617 ft 414 kts 120°
2026-05-07 17:14 8.69011 -78.25887 23936 ft 416 kts 120°
2026-05-07 17:15 8.67444 -78.23421 24234 ft 419 kts 120°
2026-05-07 17:15 8.65865 -78.20936 24500 ft 421 kts 120°
2026-05-07 17:15 8.64278 -78.18439 24807 ft 423 kts 120°
2026-05-07 17:15 8.62682 -78.15929 25101 ft 426 kts 120°
2026-05-07 17:16 8.61077 -78.13405 25384 ft 428 kts 120°
2026-05-07 17:16 8.59464 -78.10869 25687 ft 430 kts 120°
2026-05-07 17:16 8.57839 -78.08316 25973 ft 433 kts 120°
2026-05-07 17:16 8.56205 -78.05750 26256 ft 435 kts 120°
2026-05-07 17:17 8.54562 -78.03170 26552 ft 438 kts 120°
2026-05-07 17:17 8.52911 -78.00579 26818 ft 440 kts 120°
2026-05-07 17:17 8.51247 -77.97969 27086 ft 443 kts 120°
2026-05-07 17:17 8.49578 -77.95350 27360 ft 445 kts 120°
2026-05-07 17:18 8.47899 -77.92717 27639 ft 447 kts 120°
2026-05-07 17:18 8.46210 -77.90069 27918 ft 449 kts 120°
2026-05-07 17:18 8.44535 -77.87444 28176 ft 452 kts 120°
2026-05-07 17:18 8.42830 -77.84772 28447 ft 454 kts 120°
2026-05-07 17:19 8.41114 -77.82082 28722 ft 456 kts 120°
2026-05-07 17:19 8.39391 -77.79384 28967 ft 459 kts 120°
2026-05-07 17:19 8.37657 -77.76668 29214 ft 461 kts 120°
2026-05-07 17:19 8.35916 -77.73942 29486 ft 463 kts 120°
2026-05-07 17:20 8.34168 -77.71204 29752 ft 465 kts 120°
2026-05-07 17:20 8.32406 -77.68447 30000 ft 468 kts 120°
2026-05-07 17:20 8.30640 -77.65684 30254 ft 470 kts 120°
2026-05-07 17:20 8.28864 -77.62907 30496 ft 472 kts 121°
2026-05-07 17:21 8.27083 -77.60120 30744 ft 473 kts 121°
2026-05-07 17:21 8.25294 -77.57323 31006 ft 475 kts 121°
2026-05-07 17:21 8.23500 -77.54517 31253 ft 477 kts 121°
2026-05-07 17:21 8.21696 -77.51697 31503 ft 479 kts 121°
2026-05-07 17:22 8.19884 -77.48866 31748 ft 481 kts 121°
2026-05-07 17:22 8.18065 -77.46024 31989 ft 483 kts 121°
2026-05-07 17:22 8.16240 -77.43174 32232 ft 484 kts 121°
2026-05-07 17:22 8.14408 -77.40312 32437 ft 486 kts 121°
2026-05-07 17:23 8.12570 -77.37440 32627 ft 488 kts 121°
2026-05-07 17:23 8.10728 -77.34562 32792 ft 489 kts 121°
2026-05-07 17:23 8.09504 -77.32651 32900 ft 490 kts 121°
2026-05-07 17:23 8.07024 -77.28781 33092 ft 491 kts 121°
2026-05-07 17:24 8.03984 -77.23939 33289 ft 492 kts 117°
2026-05-07 17:24 8.02018 -77.19767 33443 ft 492 kts 109°
2026-05-07 17:24 8.00965 -77.16530 33550 ft 492 kts 104°
2026-05-07 17:25 7.99488 -77.10946 33751 ft 491 kts 103°
2026-05-07 17:25 7.98603 -77.07617 33881 ft 491 kts 104°
2026-05-07 17:25 7.97388 -77.03222 34035 ft 491 kts 104°
2026-05-07 17:26 7.95809 -76.97724 34246 ft 491 kts 105°
2026-05-07 17:26 7.94845 -76.94422 34357 ft 491 kts 105°
2026-05-07 17:26 7.93875 -76.91119 34486 ft 491 kts 105°
2026-05-07 17:27 7.92907 -76.87820 34599 ft 491 kts 105°
2026-05-07 17:27 7.91940 -76.84517 34746 ft 491 kts 105°
2026-05-07 17:27 7.90975 -76.81217 34863 ft 490 kts 105°
2026-05-07 17:27 7.90013 -76.77917 34994 ft 490 kts 105°
2026-05-07 17:28 7.89052 -76.74620 35134 ft 490 kts 105°
2026-05-07 17:28 7.88092 -76.71325 35269 ft 490 kts 105°
2026-05-07 17:28 7.87133 -76.68028 35418 ft 490 kts 105°
2026-05-07 17:28 7.86174 -76.64732 35561 ft 490 kts 105°
2026-05-07 17:29 7.85215 -76.61439 35733 ft 489 kts 105°
2026-05-07 17:29 7.84259 -76.58151 35895 ft 488 kts 105°
2026-05-07 17:29 7.83303 -76.54867 36075 ft 488 kts 105°
2026-05-07 17:29 7.82348 -76.51585 36247 ft 487 kts 105°
2026-05-07 17:30 7.81400 -76.48324 36438 ft 487 kts 105°
2026-05-07 17:30 7.80456 -76.45082 36620 ft 486 kts 105°
2026-05-07 17:30 7.79504 -76.41811 36814 ft 486 kts 105°
2026-05-07 17:30 7.78555 -76.38548 37012 ft 485 kts 105°
2026-05-07 17:31 7.77605 -76.35286 37198 ft 484 kts 105°
2026-05-07 17:31 7.76658 -76.32030 37388 ft 484 kts 105°
2026-05-07 17:31 7.75710 -76.28774 37574 ft 483 kts 105°
2026-05-07 17:31 7.74765 -76.25527 37756 ft 483 kts 105°
2026-05-07 17:32 7.73821 -76.22283 37927 ft 482 kts 105°
2026-05-07 17:32 7.72876 -76.19038 38091 ft 482 kts 105°
2026-05-07 17:32 7.71933 -76.15796 38253 ft 482 kts 105°
2026-05-07 17:32 7.70990 -76.12555 38402 ft 482 kts 105°
2026-05-07 17:33 7.70046 -76.09313 38553 ft 482 kts 105°
2026-05-07 17:33 7.69102 -76.06070 38684 ft 482 kts 105°
2026-05-07 17:33 7.68158 -76.02830 38809 ft 482 kts 105°
2026-05-07 17:33 7.67213 -75.99587 38919 ft 482 kts 105°
2026-05-07 17:34 7.65338 -75.93150 38943 ft 481 kts 105°
2026-05-07 17:34 7.63450 -75.86669 38947 ft 482 kts 105°
2026-05-07 17:35 7.61561 -75.80190 38948 ft 482 kts 105°
2026-05-07 17:35 7.59668 -75.73704 38948 ft 482 kts 105°
2026-05-07 17:36 7.57775 -75.67221 38947 ft 482 kts 105°
2026-05-07 17:36 7.55882 -75.60735 38947 ft 483 kts 105°
2026-05-07 17:37 7.53986 -75.54249 38946 ft 483 kts 105°
2026-05-07 17:37 7.52086 -75.47756 38944 ft 483 kts 105°
2026-05-07 17:38 7.50189 -75.41267 38942 ft 483 kts 105°
2026-05-07 17:38 7.48292 -75.34775 38940 ft 483 kts 105°
2026-05-07 17:39 7.46448 -75.28312 38928 ft 482 kts 101°
2026-05-07 17:39 7.46026 -75.24926 38928 ft 480 kts 90°
2026-05-07 17:39 7.46254 -75.21580 38922 ft 479 kts 78°
2026-05-07 17:40 7.47098 -75.18393 38921 ft 477 kts 67°
2026-05-07 17:40 7.48482 -75.15368 38911 ft 476 kts 62°
2026-05-07 17:40 7.51523 -75.09451 38907 ft 476 kts 63°
2026-05-07 17:41 7.52681 -75.06318 38910 ft 479 kts 75°
2026-05-07 17:41 7.53206 -75.03000 38913 ft 482 kts 85°
2026-05-07 17:41 7.52905 -74.96195 38909 ft 484 kts 92°
2026-05-07 17:42 7.52431 -74.89474 38917 ft 484 kts 92°
2026-05-07 17:42 7.51963 -74.82710 38920 ft 484 kts 92°
2026-05-07 17:43 7.51268 -74.75973 38924 ft 484 kts 102°
2026-05-07 17:43 7.50209 -74.72702 38918 ft 485 kts 113°
2026-05-07 17:43 7.48632 -74.69749 38922 ft 486 kts 122°
2026-05-07 17:44 7.44858 -74.64092 38924 ft 486 kts 121°
2026-05-07 17:44 7.41513 -74.58173 38921 ft 486 kts 116°
2026-05-07 17:45 7.38467 -74.52091 38921 ft 487 kts 115°
2026-05-07 17:45 7.35461 -74.45968 38908 ft 487 kts 115°
2026-05-07 17:46 7.33960 -74.42922 38667 ft 485 kts 115°
2026-05-07 17:46 7.32457 -74.39883 38108 ft 484 kts 115°
2026-05-07 17:46 7.30952 -74.36845 37365 ft 486 kts 115°
2026-05-07 17:46 7.29440 -74.33798 36622 ft 487 kts 115°
2026-05-07 17:47 7.27922 -74.30742 35837 ft 488 kts 115°
2026-05-07 17:47 7.26400 -74.27679 35046 ft 490 kts 116°
2026-05-07 17:47 7.24873 -74.24608 34264 ft 491 kts 116°
2026-05-07 17:47 7.23341 -74.21528 33403 ft 492 kts 116°
2026-05-07 17:48 7.21806 -74.18449 32483 ft 493 kts 116°
2026-05-07 17:48 7.20261 -74.15354 31537 ft 495 kts 116°
2026-05-07 17:48 7.18712 -74.12259 30719 ft 495 kts 116°
2026-05-07 17:48 7.17170 -74.09178 30102 ft 490 kts 116°
2026-05-07 17:49 7.15645 -74.06134 29452 ft 485 kts 116°
2026-05-07 17:49 7.14136 -74.03122 28827 ft 479 kts 116°
2026-05-07 17:49 7.12647 -74.00153 28223 ft 473 kts 115°
2026-05-07 17:49 7.11175 -73.97215 27605 ft 467 kts 115°
2026-05-07 17:50 7.09717 -73.94310 27012 ft 462 kts 115°
2026-05-07 17:50 7.08279 -73.91443 26419 ft 456 kts 115°
2026-05-07 17:50 7.06854 -73.88604 25835 ft 451 kts 115°
2026-05-07 17:50 7.05447 -73.85799 25268 ft 446 kts 115°
2026-05-07 17:51 7.04061 -73.83022 24703 ft 441 kts 113°
2026-05-07 17:51 7.02916 -73.80188 24314 ft 431 kts 106°
2026-05-07 17:51 7.02125 -73.77302 24216 ft 430 kts 100°
2026-05-07 17:51 7.01564 -73.74312 24166 ft 437 kts 98°
2026-05-07 17:52 7.01041 -73.71353 24125 ft 434 kts 98°
2026-05-07 17:52 7.00503 -73.68374 23874 ft 431 kts 98°
2026-05-07 17:52 6.99936 -73.65385 23440 ft 428 kts 99°
2026-05-07 17:52 6.99356 -73.62456 22889 ft 423 kts 99°
2026-05-07 17:53 6.98778 -73.59604 22192 ft 420 kts 100°
2026-05-07 17:53 6.98190 -73.56740 21509 ft 416 kts 100°
2026-05-07 17:53 6.97604 -73.53904 20841 ft 412 kts 100°
2026-05-07 17:53 6.97024 -73.51098 20210 ft 407 kts 100°
2026-05-07 17:54 6.96451 -73.48320 19589 ft 403 kts 101°
2026-05-07 17:54 6.95887 -73.45574 18965 ft 399 kts 101°
2026-05-07 17:54 6.95329 -73.42849 18357 ft 395 kts 101°
2026-05-07 17:54 6.94776 -73.40151 17685 ft 391 kts 101°
2026-05-07 17:55 6.94230 -73.37485 17025 ft 386 kts 101°
2026-05-07 17:55 6.93691 -73.34859 16366 ft 381 kts 101°
2026-05-07 17:55 6.93119 -73.32271 15704 ft 376 kts 105°
2026-05-07 17:55 6.92051 -73.29880 14955 ft 375 kts 121°
2026-05-07 17:56 6.90363 -73.27895 14259 ft 374 kts 137°
2026-05-07 17:56 6.88203 -73.26457 13584 ft 373 kts 152°
2026-05-07 17:56 6.85749 -73.25647 12880 ft 371 kts 167°
2026-05-07 17:56 6.83243 -73.25127 12217 ft 365 kts 163°
2026-05-07 17:57 6.80868 -73.24302 11644 ft 357 kts 154°
2026-05-07 17:57 6.79413 -73.23549 11428 ft 354 kts 148°
2026-05-07 17:57 6.76769 -73.21564 11097 ft 355 kts 135°
2026-05-07 17:57 6.75125 -73.19766 10953 ft 340 kts 127°
2026-05-07 17:58 6.73839 -73.17867 10909 ft 317 kts 118°
2026-05-07 17:58 6.72886 -73.15957 10900 ft 294 kts 112°
2026-05-07 17:58 6.72331 -73.14062 10765 ft 276 kts 92°
2026-05-07 17:58 6.72647 -73.12238 10627 ft 260 kts 65°
2026-05-07 17:59 6.73722 -73.10877 10478 ft 243 kts 36°
2026-05-07 17:59 6.75215 -73.10271 10303 ft 234 kts
2026-05-07 17:59 6.76823 -73.10128 9999 ft 232 kts
2026-05-07 17:59 6.78437 -73.10141 9749 ft 228 kts 358°
2026-05-07 18:00 6.79993 -73.10235 9499 ft 224 kts 358°
2026-05-07 18:00 6.81564 -73.10193 8939 ft 232 kts
2026-05-07 18:00 6.83182 -73.09900 8815 ft 233 kts 14°
2026-05-07 18:00 6.84820 -73.09455 9136 ft 261 kts 14°
2026-05-07 18:01 6.86673 -73.09241 8816 ft 269 kts 355°
2026-05-07 18:01 6.88463 -73.09549 8651 ft 252 kts 346°
2026-05-07 18:01 6.90084 -73.10027 8505 ft 234 kts 341°
2026-05-07 18:01 6.91578 -73.10556 8297 ft 223 kts 340°
2026-05-07 18:02 6.94495 -73.11628 7414 ft 223 kts 339°
2026-05-07 18:02 6.95915 -73.12167 7028 ft 214 kts 338°
2026-05-07 18:02 6.97293 -73.12699 6647 ft 210 kts 338°
2026-05-07 18:03 6.98632 -73.13225 6332 ft 202 kts 338°
2026-05-07 18:03 6.99866 -73.13686 6281 ft 192 kts 341°
2026-05-07 18:03 7.01107 -73.14117 6034 ft 183 kts 338°
2026-05-07 18:03 7.02256 -73.14557 5799 ft 171 kts 339°
2026-05-07 18:04 7.03326 -73.14955 5589 ft 156 kts 338°
2026-05-07 18:04 7.04331 -73.15338 5402 ft 158 kts 339°
2026-05-07 18:04 7.05353 -73.15720 5200 ft 153 kts 339°
2026-05-07 18:04 7.06365 -73.16105 4995 ft 157 kts 339°
2026-05-07 18:05 7.07375 -73.16486 4803 ft 154 kts 338°
2026-05-07 18:05 7.08378 -73.16865 4608 ft 155 kts 338°
2026-05-07 18:05 7.09387 -73.17246 4383 ft 154 kts 339°
2026-05-07 18:05 7.10391 -73.17628 4184 ft 155 kts 339°
2026-05-07 18:06 7.11397 -73.18007 3962 ft 156 kts 337°
2026-05-07 18:06 7.12355 -73.18363 3895 ft 116 kts 344°
2026-05-07 18:06 7.12825 -73.18532 3914 ft 29 kts 335°
2026-05-07 18:06 7.12876 -73.18543 3917 ft 3 kts
2026-05-07 18:07 7.12871 -73.18545 3917 ft 2 kts
2026-05-07 18:07 7.12895 -73.18538 3917 ft 1 kts 21°
2026-05-07 18:07 7.12909 -73.18524 3918 ft 4 kts 49°
2026-05-07 18:07 7.12916 -73.18510 3918 ft 3 kts 62°
2026-05-07 18:08 7.12909 -73.18477 3917 ft 5 kts 128°
2026-05-07 18:08 7.12858 -73.18450 3916 ft 8 kts 157°
2026-05-07 18:08 7.12796 -73.18426 3908 ft 10 kts 161°
2026-05-07 18:08 7.12785 -73.18422 3906 ft 0 kts 160°
2026-05-07 18:09 7.12774 -73.18418 3905 ft 5 kts 161°
2026-05-07 18:09 7.12742 -73.18391 3910 ft 0 kts 135°
2026-05-07 18:09 7.12730 -73.18379 3906 ft 8 kts 133°
2026-05-07 18:10 7.12666 -73.18257 3902 ft 20 kts 105°
2026-05-07 18:10 7.12657 -73.18164 3903 ft 9 kts 92°
2026-05-07 18:10 7.12666 -73.18140 3904 ft 1 kts 61°
2026-05-07 18:10 7.12679 -73.18120 3902 ft 5 kts 56°
2026-05-07 18:11 7.12696 -73.18115 3901 ft 4 kts 24°
2026-05-07 18:11 7.12703 -73.18113 3905 ft 1 kts 18°
2026-05-07 18:11 7.12704 -73.18114 3905 ft 0 kts 13°